Location: Brabourne
(51.1333°N, 1.0000°E)
Time: 04:54:26
(UTC+00:00)

NOSS 3-1 (A) - Pass Details

Date: 24 October 2021
Orbit: 721 x 1491 km, 63.4° (Epoch: 22 November)

Event Time Altitude Azimuth Distance (km) Brightness Sun altitude
Rises 17:48:40 0° 184° (S) 3,193 6.3 -10.7°
Reaches altitude 10° 17:51:10 10° 173° (S) 2,332 5.5 -11.0°
Maximum altitude 17:55:42 29° 114° (ESE) 1,519 4.1 -11.8°
Enters shadow 17:59:58 14° 62° (ENE) 2,396 5.0 -12.4°
